FW9898 Weather Reports


time (UTC)temp
C
wind
direction
speed
KPH
gust
KPH
rain 1hr
cm
rain 24hr
cm
rain mn
cm
humidity
%
barometer
mb
20260506161033 25 201 4.8 6.4 0.00 0.00 0.00 70 1017.5
20260506160531 25 175 1.6 1.6 0.00 0.00 0.00 70 1017.6
20260506160028 25 191 1.6 4.8 0.00 0.00 0.00 69 1017.5
20260506155527 25 194 1.6 4.8 0.00 0.00 0.00 68 1017.7
20260506153703 25 183 3.2 4.8 0.00 0.00 0.00 64 1017.6
20260506153201 26 215 6.4 8.0 0.00 0.00 0.00 64 1017.4
20260506152658 25 279 1.6 1.6 0.00 0.00 0.00 63 1017.6
20260506152155 26 228 3.2 4.8 0.00 0.00 0.00 62 1017.8
20260506151654 25 226 4.8 6.4 0.00 0.00 0.00 62 1017.6
20260506151150 25 193 3.2 4.8 0.00 0.00 0.00 65 1017.5
20260506150647 25 171 3.2 4.8 0.00 0.00 0.00 66 1017.6
20260506150144 25 183 3.2 4.8 0.00 0.00 0.00 68 1017.4
20260506145641 25 166 4.8 6.4 0.00 0.00 0.00 69 1017.4
20260506145137 25 204 3.2 6.4 0.00 0.00 0.00 69 1017.4
20260506144636 25 179 4.8 4.8 0.00 0.00 0.00 69 1017.5
20260506144132 25 186 6.4 8.0 0.00 0.00 0.00 68 1017.5
20260506143630 25 175 3.2 4.8 0.00 0.00 0.00 70 1017.3
20260506143127 24 186 3.2 4.8 0.00 0.00 0.00 72 1016.9
20260506142626 24 186 6.4 6.4 0.00 0.00 0.00 72 1017.2
20260506142123 24 185 1.6 1.6 0.00 0.00 0.00 74 1017.0
20260506141621 24 193 1.6 1.6 0.00 0.00 0.00 75 1017.0
20260506141119 23 213 1.6 1.6 0.00 0.00 0.00 76 1017.3
20260506140616 23 166 4.8 8.0 0.00 0.00 0.00 75 1017.3
20260506140113 23 186 1.6 1.6 0.00 0.00 0.00 76 1017.3
20260506135610 23 207 1.6 1.6 0.00 0.00 0.00 75 1017.1
20260506135106 23 168 4.8 6.4 0.00 0.00 0.00 77 1017.1
20260506134603 23 169 0.0 1.6 0.00 0.00 0.00 77 1017.0
20260506134058 23 193 3.2 4.8 0.00 0.00 0.00 76 1017.1
20260506133556 23 165 1.6 1.6 0.00 0.00 0.00 77 1016.9
20260506133053 23 183 1.6 1.6 0.00 0.00 0.00 77 1017.3
20260506132550 23 158 1.6 1.6 0.00 0.00 0.00 77 1017.2
20260506132047 23 191 1.6 4.8 0.00 0.00 0.00 77 1017.0
20260506131544 22 161 1.6 1.6 0.00 0.00 0.00 78 1017.1
20260506131041 22 137 1.6 1.6 0.00 0.00 0.00 78 1016.6
20260506130538 22 187 4.8 4.8 0.00 0.00 0.00 79 1016.9
20260506130035 22 180 0.0 1.6 0.00 0.00 0.00 80 1017.1
20260506125533 22 194 0.0 0.0 0.00 0.00 0.00 81 1016.8
20260506125031 22 153 4.8 6.4 0.00 0.00 0.00 82 1017.0
20260506124529 22 192 4.8 6.4 0.00 0.00 0.00 82 1016.7
20260506124026 22 159 1.6 4.8 0.00 0.00 0.00 82 1016.6
20260506123524 22 200 0.0 1.6 0.00 0.00 0.00 83 1016.7
20260506123022 21 194 3.2 4.8 0.00 0.00 0.00 84 1016.8
20260506122518 21 211 1.6 4.8 0.00 0.00 0.00 85 1016.8
20260506122016 21 173 0.0 1.6 0.00 0.00 0.00 86 1016.7
20260506121514 21 191 0.0 1.6 0.00 0.00 0.00 87 1016.6
20260506121010 20 207 1.6 1.6 0.00 0.00 0.00 88 1016.7
20260506120508 20 213 1.6 1.6 0.00 0.00 0.00 90 1017.0
20260506120005 20 183 0.0 0.0 0.00 0.00 0.00 92 1016.5
20260506115503 19 183 0.0 0.0 0.00 0.00 0.00 94 1016.6
20260506115001 19 183 0.0 0.0 0.00 0.00 0.00 95 1016.6
20260506114458 18 182 0.0 0.0 0.00 0.00 0.00 96 1016.6
20260506113956 18 182 0.0 0.0 0.00 0.00 0.00 97 1016.5
20260506113454 18 181 0.0 0.0 0.00 0.00 0.00 97 1016.4
20260506112950 17 181 0.0 0.0 0.00 0.00 0.00 97 1016.5
20260506112448 17 180 0.0 0.0 0.00 0.00 0.00 97 1016.3
20260506111945 17 180 0.0 0.0 0.00 0.00 0.00 97 1016.1
20260506111443 17 180 0.0 0.0 0.00 0.00 0.00 97 1016.5
20260506110939 17 179 0.0 0.0 0.00 0.00 0.00 97 1016.3
20260506110438 17 179 0.0 0.0 0.00 0.00 0.00 97 1016.4
20260506105934 17 179 0.0 0.0 0.00 0.00 0.00 97 1016.3
20260506105430 17 179 0.0 0.0 0.00 0.00 0.00 97 1016.4
20260506104927 17 178 0.0 0.0 0.00 0.00 0.00 97 1016.4
20260506104425 17 178 0.0 0.0 0.00 0.00 0.00 97 1016.3
20260506103924 17 199 0.0 0.0 0.00 0.00 0.00 97 1016.2
20260506103420 17 199 0.0 0.0 0.00 0.00 0.00 97 1016.2
20260506102917 17 199 0.0 0.0 0.00 0.00 0.00 97 1016.2
20260506102416 17 199 0.0 0.0 0.00 0.00 0.00 97 1015.9
20260506101913 17 199 0.0 0.0 0.00 0.00 0.00 96 1016.2
20260506101409 17 199 0.0 0.0 0.00 0.00 0.00 96 1016.1
20260506100906 17 200 0.0 0.0 0.00 0.00 0.00 96 1016.1
20260506100404 17 201 0.0 0.0 0.00 0.00 0.00 96 1016.2
20260506095902 17 201 0.0 0.0 0.00 0.00 0.00 95 1015.8
20260506095400 17 201 0.0 0.0 0.00 0.00 0.00 95 1015.8
20260506094856 17 201 0.0 0.0 0.00 0.00 0.00 95 1016.1
20260506094355 17 201 0.0 0.0 0.00 0.00 0.00 95 1016.0
20260506093852 17 201 0.0 0.0 0.00 0.00 0.00 95 1015.9
20260506093350 17 201 0.0 0.0 0.00 0.00 0.00 95 1016.0
20260506092847 17 201 0.0 0.0 0.00 0.00 0.00 95 1016.1
20260506092345 17 201 0.0 0.0 0.00 0.00 0.00 95 1016.0
20260506091842 17 201 0.0 0.0 0.00 0.00 0.00 94 1016.0
20260506091340 17 201 0.0 0.0 0.00 0.00 0.00 94 1016.2
20260506090837 17 201 0.0 0.0 0.00 0.00 0.00 94 1016.0
20260506090335 18 201 0.0 0.0 0.00 0.00 0.00 94 1016.0
20260506085831 18 201 0.0 0.0 0.00 0.00 0.00 93 1016.3
20260506085327 18 201 0.0 0.0 0.00 0.00 0.00 93 1016.1
20260506084824 18 202 0.0 0.0 0.00 0.00 0.00 93 1016.3
20260506084320 18 202 0.0 0.0 0.00 0.00 0.00 93 1016.5
20260506083817 18 202 0.0 0.0 0.00 0.00 0.00 93 1016.3
20260506083315 18 202 0.0 0.0 0.00 0.00 0.00 93 1016.2
20260506082812 18 202 0.0 0.0 0.00 0.00 0.00 92 1016.2
20260506082308 18 202 0.0 0.0 0.00 0.00 0.00 92 1016.4
20260506081805 18 202 0.0 0.0 0.00 0.00 0.00 92 1016.1
20260506081303 18 202 0.0 0.0 0.00 0.00 0.00 92 1016.2
20260506080800 18 202 0.0 0.0 0.00 0.00 0.00 92 1016.0
20260506080256 18 202 0.0 0.0 0.00 0.00 0.00 92 1016.3
20260506073240 18 202 0.0 0.0 0.00 0.00 0.00 91 1015.8
20260506072737 18 202 0.0 0.0 0.00 0.00 0.00 91 1015.6
20260506072235 18 203 0.0 0.0 0.00 0.00 0.00 91 1015.8
20260506071733 18 203 0.0 1.6 0.00 0.00 0.00 91 1015.9
20260506071230 18 203 0.0 0.0 0.00 0.00 0.00 90 1015.7
20260506070727 18 203 0.0 0.0 0.00 0.00 0.00 90 1015.8
20260506070224 18 203 0.0 0.0 0.00 0.00 0.00 90 1015.7
20260506062201 18 181 0.0 0.0 0.00 0.00 0.00 89 1016.2
20260506061656 18 181 0.0 0.0 0.00 0.00 0.00 89 1016.1
20260506061154 18 181 0.0 0.0 0.00 0.00 0.00 89 1016.1
20260506060653 18 181 0.0 0.0 0.00 0.00 0.00 89 1016.2
20260506060149 18 181 0.0 0.0 0.00 0.00 0.00 88 1016.0
20260506051121 18 182 0.0 0.0 0.00 0.00 0.00 88 1016.8
20260506050620 18 182 0.0 0.0 0.00 0.00 0.00 88 1016.8
20260506050116 18 182 0.0 0.0 0.00 0.00 0.00 87 1016.8
20260506045110 18 182 0.0 0.0 0.00 0.00 0.00 87 1017.0
20260506044608 18 182 0.0 0.0 0.00 0.00 0.00 87 1017.0
20260506044104 18 182 0.0 0.0 0.00 0.00 0.00 87 1017.3
20260506043601 18 182 0.0 0.0 0.00 0.00 0.00 87 1017.2
20260506043100 18 182 0.0 0.0 0.00 0.00 0.00 87 1017.1
20260506042558 18 183 0.0 0.0 0.00 0.00 0.00 87 1017.2
20260506042056 18 183 0.0 0.0 0.00 0.00 0.00 87 1017.3
20260506041554 18 183 0.0 0.0 0.00 0.00 0.00 86 1017.2
20260506041051 18 183 0.0 0.0 0.00 0.00 0.00 86 1017.1
20260506040549 18 183 0.0 0.0 0.00 0.00 0.00 86 1017.1
20260506040044 18 183 0.0 0.0 0.00 0.00 0.00 85 1017.2
20260506035542 18 183 0.0 0.0 0.00 0.00 0.00 84 1017.1
20260506035038 18 183 0.0 0.0 0.00 0.00 0.00 84 1017.0
20260506034536 18 183 0.0 0.0 0.00 0.00 0.00 84 1017.0
20260506034032 18 183 0.0 0.0 0.00 0.00 0.00 83 1016.9
20260506033530 18 183 1.6 1.6 0.00 0.00 0.00 84 1016.8
20260506033027 18 183 0.0 0.0 0.00 0.00 0.00 84 1017.3
20260506032524 18 183 0.0 0.0 0.00 0.00 0.00 84 1016.8
20260506032021 18 183 0.0 0.0 0.00 0.00 0.00 83 1017.2
20260506031519 18 183 0.0 1.6 0.00 0.00 0.00 84 1017.1
20260506031015 18 183 0.0 1.6 0.00 0.00 0.00 84 1017.0
20260506030513 18 183 0.0 0.0 0.00 0.00 0.00 84 1016.9
20260506030010 18 183 0.0 1.6 0.00 0.00 0.00 84 1017.1
20260506025507 18 183 1.6 1.6 0.00 0.00 0.00 84 1017.1
20260506025003 18 183 0.0 0.0 0.00 0.00 0.00 84 1017.3
20260506024500 18 183 0.0 0.0 0.00 0.00 0.00 83 1017.4
20260506023956 18 183 0.0 0.0 0.00 0.00 0.00 83 1017.4
20260506023453 18 183 0.0 0.0 0.00 0.00 0.00 82 1017.5
20260506022950 18 183 0.0 0.0 0.00 0.00 0.00 82 1017.5
20260506022448 18 183 0.0 0.0 0.00 0.00 0.00 82 1017.6
20260506021945 18 183 0.0 0.0 0.00 0.00 0.00 82 1017.4
20260506021442 18 183 0.0 0.0 0.00 0.00 0.00 81 1017.5
20260506020939 18 183 0.0 0.0 0.00 0.00 0.00 81 1017.3
20260506020437 18 183 0.0 0.0 0.00 0.00 0.00 80 1017.4
20260506015934 18 183 0.0 0.0 0.00 0.00 0.00 80 1017.2
20260506015432 18 183 0.0 0.0 0.00 0.00 0.00 79 1017.2
20260506014928 18 183 0.0 0.0 0.00 0.00 0.00 79 1017.0
20260506014425 18 183 0.0 1.6 0.00 0.00 0.00 79 1017.0
20260506013922 18 183 0.0 0.0 0.00 0.00 0.00 79 1017.1
20260506013420 18 183 0.0 0.0 0.00 0.00 0.00 79 1016.8
20260506012916 18 183 0.0 0.0 0.00 0.00 0.00 79 1017.0
20260506012412 18 183 0.0 0.0 0.00 0.00 0.00 79 1016.9
20260506011910 18 183 0.0 0.0 0.00 0.00 0.00 78 1017.1
20260506011407 19 183 0.0 0.0 0.00 0.00 0.00 78 1017.3
20260506010904 19 183 0.0 0.0 0.00 0.00 0.00 77 1017.0
20260506010402 19 183 0.0 0.0 0.00 0.00 0.00 77 1016.9
20260506005858 19 183 0.0 0.0 0.00 0.00 0.00 77 1016.9
20260506005356 19 183 1.6 1.6 0.00 0.00 0.00 76 1017.0
20260506004851 19 183 0.0 0.0 0.00 0.00 0.00 76 1016.9
20260506004349 20 183 0.0 0.0 0.00 0.00 0.00 75 1016.9
20260506003845 20 183 0.0 0.0 0.00 0.00 0.00 75 1017.1
20260506003341 20 183 0.0 0.0 0.00 0.00 0.00 74 1016.9
20260506002838 20 183 0.0 1.6 0.00 0.00 0.00 74 1017.0
20260506002334 20 183 0.0 0.0 0.00 0.00 0.00 73 1016.9
20260506001830 20 183 0.0 0.0 0.00 0.00 0.00 73 1017.2
20260506001327 20 183 0.0 0.0 0.00 0.00 0.00 73 1017.0
20260506000824 20 183 0.0 1.6 0.00 0.00 0.00 72 1016.8
20260506000323 20 183 0.0 0.0 0.00 0.00 0.00 71 1017.2
20260505235819 21 183 1.6 1.6 0.00 0.00 0.00 70 1016.9
20260505235316 21 182 0.0 0.0 0.00 0.00 0.00 70 1016.8
20260505234813 21 182 1.6 1.6 0.00 0.00 0.00 69 1017.0
20260505234311 21 170 4.8 4.8 0.00 0.00 0.00 68 1016.9
20260505233807 21 177 1.6 1.6 0.00 0.00 0.00 68 1016.6
20260505233305 21 141 0.0 0.0 0.00 0.00 0.00 69 1017.0
20260505232802 21 201 3.2 4.8 0.00 0.00 0.00 68 1017.0
20260505232300 21 142 1.6 1.6 0.00 0.00 0.00 68 1016.7
20260505231756 21 138 1.6 1.6 0.00 0.00 0.00 67 1016.8
20260505231255 21 182 4.8 4.8 0.00 0.00 0.00 66 1016.9
20260505230752 21 158 3.2 4.8 0.00 0.00 0.00 67 1017.1
20260505230249 21 142 1.6 1.6 0.00 0.00 0.00 67 1017.2
20260505225746 21 143 4.8 4.8 0.00 0.00 0.00 66 1017.0
20260505225243 22 177 1.6 1.6 0.00 0.00 0.00 66 1016.7
20260505224738 22 187 4.8 6.4 0.00 0.00 0.00 65 1017.0
20260505224236 22 196 3.2 4.8 0.00 0.00 0.00 65 1016.8
20260505223733 22 157 3.2 4.8 0.00 0.00 0.00 63 1017.1
20260505223229 22 168 4.8 6.4 0.00 0.00 0.00 64 1016.9
20260505222725 22 195 3.2 4.8 0.00 0.00 0.00 63 1017.1
20260505222221 22 203 1.6 1.6 0.00 0.00 0.00 64 1017.4
20260505221719 22 206 3.2 4.8 0.00 0.00 0.00 65 1016.9
20260505221215 22 193 3.2 4.8 0.00 0.00 0.00 64 1016.9
20260505220712 22 194 1.6 1.6 0.00 0.00 0.00 65 1017.0
20260505220210 22 194 3.2 4.8 0.00 0.00 0.00 64 1017.1
20260505215708 22 204 4.8 6.4 0.00 0.00 0.00 65 1017.3
20260505215206 22 200 3.2 4.8 0.00 0.00 0.00 65 1017.2
20260505214703 22 186 1.6 1.6 0.00 0.00 0.00 64 1017.2
20260505214200 22 187 1.6 1.6 0.00 0.00 0.00 64 1017.1
20260505213658 22 187 3.2 4.8 0.00 0.00 0.00 62 1017.5
20260505213155 22 193 4.8 4.8 0.00 0.00 0.00 64 1017.5
20260505212650 22 176 3.2 4.8 0.00 0.00 0.00 64 1017.3
20260505212148 22 176 3.2 4.8 0.00 0.00 0.00 64 1017.3
20260505211645 22 194 1.6 1.6 0.00 0.00 0.00 63 1017.1
20260505211142 22 243 3.2 4.8 0.00 0.00 0.00 61 1017.2
20260505210639 22 195 0.0 0.0 0.00 0.00 0.00 62 1017.3
20260505210135 22 181 4.8 6.4 0.00 0.00 0.00 63 1017.3
20260505205633 23 174 1.6 1.6 0.00 0.00 0.00 62 1017.1
20260505205131 23 174 3.2 4.8 0.00 0.00 0.00 62 1017.0
20260505204627 23 174 4.8 4.8 0.00 0.00 0.00 61 1017.0
20260505204126 23 188 3.2 4.8 0.00 0.00 0.00 62 1017.3
20260505203622 23 189 4.8 8.0 0.00 0.00 0.00 61 1017.2
20260505203119 23 192 3.2 4.8 0.00 0.00 0.00 61 1017.2
20260505202615 23 204 1.6 1.6 0.00 0.00 0.00 62 1017.1
20260505202111 23 183 6.4 6.4 0.00 0.00 0.00 61 1017.4
20260505201608 23 187 1.6 1.6 0.00 0.00 0.00 61 1017.3
20260505201106 23 187 4.8 4.8 0.00 0.00 0.00 61 1017.3
20260505200603 24 171 3.2 4.8 0.00 0.00 0.00 61 1017.4
20260505200100 24 171 8.0 11.3 0.00 0.00 0.00 60 1017.5
20260505195555 24 159 3.2 4.8 0.00 0.00 0.00 60 1017.8
20260505195054 25 183 0.0 1.6 0.00 0.00 0.00 60 1017.7
20260505194550 25 186 0.0 1.6 0.00 0.00 0.00 58 1017.9
20260505194046 25 178 8.0 8.0 0.00 0.00 0.00 57 1018.1
20260505193543 26 192 1.6 1.6 0.00 0.00 0.00 54 1018.1
20260505193040 25 193 1.6 1.6 0.00 0.00 0.00 55 1018.2
20260505192539 25 169 1.6 1.6 0.00 0.00 0.00 55 1018.4
20260505192036 25 169 0.0 1.6 0.00 0.00 0.00 57 1018.4
20260505191534 25 177 1.6 1.6 0.00 0.00 0.00 58 1018.4
20260505191032 25 192 1.6 1.6 0.00 0.00 0.00 56 1018.5
20260505190526 24 199 3.2 4.8 0.00 0.00 0.00 58 1018.5
20260505190023 25 174 0.0 1.6 0.00 0.00 0.00 60 1018.4
20260505185520 24 199 4.8 6.4 0.00 0.00 0.00 59 1018.4
20260505185016 23 126 3.2 4.8 0.00 0.00 0.00 59 1018.4
20260505184513 23 128 3.2 6.4 0.00 0.00 0.00 58 1018.4
20260505184009 23 193 3.2 6.4 0.00 0.00 0.00 59 1018.4
20260505183507 24 157 4.8 6.4 0.00 0.00 0.00 58 1018.2
20260505183004 24 193 4.8 6.4 0.00 0.00 0.00 59 1018.2
20260505182500 25 184 3.2 4.8 0.00 0.00 0.00 59 1018.2
20260505181956 25 183 6.4 8.0 0.00 0.00 0.00 58 1018.4
20260505181453 25 186 0.0 1.6 0.00 0.00 0.00 59 1018.3
20260505180950 23 186 3.2 4.8 0.00 0.00 0.00 62 1018.4
20260505180446 23 173 1.6 4.8 0.00 0.00 0.00 61 1018.3
20260505175943 23 173 3.2 4.8 0.00 0.00 0.00 62 1018.3
20260505175439 23 174 3.2 4.8 0.00 0.00 0.00 62 1018.4
20260505174936 23 173 4.8 4.8 0.00 0.00 0.00 63 1018.4
20260505174434 23 173 3.2 4.8 0.00 0.00 0.00 63 1018.1
20260505173930 23 175 3.2 4.8 0.00 0.00 0.00 63 1018.1
20260505173426 23 175 3.2 6.4 0.00 0.00 0.00 63 1018.1
20260505172923 23 175 3.2 4.8 0.00 0.00 0.00 61 1018.6
20260505172422 23 212 1.6 1.6 0.00 0.00 0.00 60 1018.6
20260505171920 23 198 1.6 4.8 0.00 0.00 0.00 60 1018.6
20260505171418 23 171 4.8 6.4 0.00 0.00 0.00 62 1018.7
20260505170914 23 194 3.2 4.8 0.00 0.00 0.00 61 1018.5
20260505170411 23 165 4.8 6.4 0.00 0.00 0.00 62 1018.9
20260505165906 23 174 4.8 4.8 0.00 0.00 0.00 60 1019.0
20260505165403 23 176 4.8 4.8 0.00 0.00 0.00 62 1018.7
20260505164858 23 160 4.8 6.4 0.00 0.00 0.00 63 1018.5
20260505164355 22 160 3.2 6.4 0.00 0.00 0.00 64 1019.0
20260505163853 22 235 3.2 4.8 0.00 0.00 0.00 64 1018.9
20260505163352 22 177 6.4 8.0 0.00 0.00 0.00 64 1018.8
20260505162850 23 192 1.6 1.6 0.00 0.00 0.00 63 1018.9
20260505162346 22 170 4.8 6.4 0.00 0.00 0.00 64 1019.1
20260505161843 22 184 1.6 1.6 0.00 0.00 0.00 64 1019.1
20260505161340 23 193 3.2 4.8 0.00 0.00 0.00 62 1019.3